Weather in Sibiryak

Russia / Tyumen Oblast     58°08′49″N   68°27′54″E
temp.,
°C
wind,
m/s
gust,
m/s
humid.,
%
clouds,
%
prec.,
mm/h
press.,
hPa
HPBL,
m
9 august, tue
tue923:00+18ene257412 0.0 101889
02:00+16ene22830 0.0 101828
05:00+15nne22840 0.0 101822
08:00+21ne236276 0.0 1019313
11:00+26ne23475 0.0 10181323
14:00+28nne23390 0.0 10172139
17:00+28n333922 0.0 10162146
20:00+22n22593 0.0 101623
10 august, wed
wed1023:00+20n24665 0.0 101669
02:00+17n22865 0.0 101633
05:00+16n25937 0.0 1016117
08:00+22ne24708 0.0 1017362
11:00+26nne455026 0.0 10171140
14:00+28ne46435 0.0 10161990
17:00+28ne454412 0.0 10162014
20:00+22ne410635 0.0 1017338
11 august, thu
thu1123:00+18ene411578 0.0 1018310
02:00+15ene3106841 0.0 1018222
05:00+13ene387678 0.0 1019159
08:00+18e475894 0.0 1019361
11:00+23ese344129 0.0 10181125
14:00+26se32335 0.0 10171515
17:00+26sse33365 0.0 10161459
20:00+19sse36635 0.0 1015113
12 august, fri
fri1223:00+18sse411645 0.0 1014256
02:00+15sse311949 1.9 1013241
05:00+15s399973 4.3 1012271
08:00+17s269899 1.4 1011251
11:00+16w5896100 4.1 1010607
14:00+21wsw6951100 0.4 10091771
17:00+19w6959100 0.5 10101405
20:00+17w31069100 0.0 1009447
13 august, sat
sat1323:00+14w3108770 0.0 1009507
02:00+15wsw41077100 0.0 1008410
05:00+14wsw412815 0.0 1007541
08:00+17w6117293 0.0 1006931
11:00+17wnw61087100 1.9 10061049
14:00+18nw7127224 1.8 10081466
17:00+19nw7116042 2.6 10101566
20:00+16nw5116814 0.1 1011949